This demonstration page uses our WeatherBlox Daily Observations layout. Learn more.

Left ArrowRight Arrow

40.92945, -100.16068

Hourly Observations for December 26, 2020

Temp ( °F °C ) Dew Point ( °F °C ) Humidity (%) Winds ( mph kmh ) Pressure ( in mb ) Visibility ( mi km ) Precip ( " mm )
12:15 am 00:15 Clear 26 -3.1 23 -4.9 88 88 WNW 3 6 30.09 1019 10 16.0934 0 0
12:35 am 00:35 Clear 26 -3.3 23 -5 88 88 NW 3 6 30.09 1019 10 16.0934 0 0
12:55 am 00:55 Clear 26 -3.6 23 -5.2 89 89 W 6 9 30.08 1019 10 16.0934 0 0
1:15 am 01:15 Clear 26 -3.3 23 -4.8 90 90 Calm 30.07 1018 10 16.0934 0 0
1:35 am 01:35 Clear 26 -3.3 23 -5 88 88 Calm 30.06 1018 10 16.0934 0 0
1:55 am 01:55 Clear 25 -4 22 -5.5 89 89 Calm 30.07 1018 10 16.0934 0 0
2:15 am 02:15 Clear 25 -4.1 22 -5.5 90 90 Calm 30.06 1018 10 16.0934 0 0
2:35 am 02:35 Clear 25 -4.1 22 -5.5 90 90 SW 3 6 30.05 1018 10 16.0934 0 0
2:55 am 02:55 Clear 26 -3.6 23 -5.1 89 89 Calm 30.04 1017 10 16.0934 0 0
3:15 am 03:15 Clear 24 -4.2 22 -5.6 90 90 N 8 13 30.05 1018 10 16.0934 0 0
3:35 am 03:35 Clear 25 -3.9 22 -5.5 89 89 Calm 30.04 1017 10 16.0934 0 0
3:55 am 03:55 Clear 24 -4.7 21 -6.1 90 90 WSW 3 6 30.04 1017 10 16.0934 0 0
4:15 am 04:15 Clear 23 -4.9 20 -6.4 89 89 Calm 30.04 1017 10 16.0934 0 0
4:35 am 04:35 Clear 24 -4.6 21 -6 90 90 Calm 30.03 1017 10 16.0934 0 0
4:55 am 04:55 Clear 23 -5 20 -6.5 89 89 N 5 7 30.04 1017 10 16.0934 0 0
5:15 am 05:15 Clear 22 -5.3 20 -6.7 90 90 N 3 6 30.04 1017 10 16.0934 0 0
5:35 am 05:35 Clear 21 -6 19 -7.5 89 89 NW 3 6 30.05 1018 10 16.0934 0 0
5:55 am 05:55 Clear 21 -5.9 19 -7.3 90 90 NNW 3 6 30.04 1017 10 16.0934 0 0
6:15 am 06:15 Clear 21 -6.1 18 -7.6 89 89 WNW 5 7 30.04 1017 10 16.0934 0 0
6:35 am 06:35 Clear 20 -6.5 18 -8 89 89 W 7 11 30.03 1017 10 16.0934 0 0
6:55 am 06:55 Clear 21 -6.3 18 -7.9 89 89 W 6 9 30.03 1017 10 16.0934 0 0
7:15 am 07:15 Clear 21 -6.2 18 -7.7 89 89 W 8 13 30.04 1017 10 16.0934 0 0
7:35 am 07:35 Clear 22 -5.7 19 -7.2 89 89 WSW 6 9 30.02 1017 10 16.0934 0 0
7:55 am 07:55 Clear 22 -5.5 19 -7.1 89 89 Calm 30.01 1016 10 16.0934 0 0
8:15 am 08:15 Sunny 21 -5.9 18 -7.6 88 88 NW 9 15 30.03 1017 10 16.0934 0 0
8:35 am 08:35 Sunny 22 -5.5 19 -7.1 89 89 NW 6 9 30.02 1017 10 16.0934 0 0
8:55 am 08:55 Sunny 23 -4.9 20 -6.8 87 87 Calm 30 1016 10 16.0934 0 0
9:15 am 09:15 Sunny 25 -4 21 -6 86 86 WNW 5 7 30 1016 10 16.0934 0 0
9:35 am 09:35 Sunny 26 -3.3 22 -5.5 85 85 WNW 6 9 29.99 1016 10 16.0934 0 0
9:55 am 09:55 Sunny 27 -2.7 22 -5.4 82 82 Calm 29.98 1015 10 16.0934 0 0
10:15 am 10:15 Sunny 30 -1.3 24 -4.4 80 80 Calm 29.96 1015 10 16.0934 0 0
10:35 am 10:35 Sunny 32 0 26 -3.4 78 78 Calm 29.95 1014 10 16.0934 0 0
10:55 am 10:55 Sunny 33 0.7 27 -2.6 79 79 Calm 29.94 1014 10 16.0934 0 0
11:15 am 11:15 Sunny 34 1.3 28 -2.5 76 76 W 3 6 29.93 1014 10 16.0934 0 0
11:35 am 11:35 Sunny 36 2 28 -2.1 75 75 Calm 29.91 1013 10 16.0934 0 0
11:55 am 11:55 Sunny 37 2.5 29 -1.5 75 75 Calm 29.88 1012 10 16.0934 0 0
12:15 pm 12:15 Sunny 37 3 30 -1.1 75 75 Calm 29.88 1012 10 16.0934 0 0
12:35 pm 12:35 Sunny 40 4.5 31 -0.7 69 69 Calm 29.85 1011 10 16.0934 0 0
12:55 pm 12:55 Sunny 42 5.6 32 -0.2 67 67 NW 3 6 29.82 1010 10 16.0934 0 0
1:15 pm 13:15 Sunny 44 6.5 32 0 64 64 W 3 6 29.81 1010 10 16.0934 0 0
1:35 pm 13:35 Sunny 47 8.1 30 -1 53 53 SW 5 7 29.78 1008 10 16.0934 0 0
1:55 pm 13:55 Sunny 48 8.7 29 -1.6 49 49 SW 6 9 29.77 1008 10 16.0934 0 0
2:15 pm 14:15 Sunny 48 9.1 28 -2.1 46 46 SW 3 6 29.76 1008 10 16.0934 0 0
2:35 pm 14:35 Sunny 49 9.5 29 -1.7 46 46 SW 6 9 29.75 1007 10 16.0934 0 0
2:55 pm 14:55 Sunny 49 9.5 29 -1.6 46 46 WSW 3 6 29.74 1007 10 16.0934 0 0
3:15 pm 15:15 Sunny 51 10.5 29 -1.8 43 43 Calm 29.73 1007 10 16.0934 0 0
3:35 pm 15:35 Sunny 52 11.1 29 -1.9 41 41 Calm 29.72 1006 10 16.0934 0 0
3:55 pm 15:55 Sunny 52 11.3 30 -1.1 42 42 Calm 29.7 1006 10 16.0934 0 0
4:15 pm 16:15 Sunny 52 11.1 30 -1.1 43 43 S 3 6 29.7 1006 10 16.0934 0 0
4:35 pm 16:35 Sunny 50 10.2 31 -0.7 47 47 S 5 7 29.71 1006 10 16.0934 0 0
4:55 pm 16:55 Sunny 46 8 32 -0.1 57 57 Calm 29.73 1007 10 16.0934 0 0
5:15 pm 17:15 Sunny 48 8.9 29 -1.4 49 49 Calm 29.72 1006 10 16.0934 0 0
5:35 pm 17:35 Clear 44 6.7 29 -1.6 56 56 Calm 29.74 1007 10 16.0934 0 0
5:55 pm 17:55 Clear 45 7 28 -2 53 53 Calm 29.73 1007 10 16.0934 0 0
6:15 pm 18:15 Clear 40 4.2 29 -1.6 66 66 Calm 29.76 1008 10 16.0934 0 0
6:35 pm 18:35 Clear 40 4.6 29 -1.6 64 64 Calm 29.74 1007 10 16.0934 0 0
6:55 pm 18:55 Clear 37 2.9 30 -1.3 74 74 Calm 29.76 1008 10 16.0934 0 0
7:15 pm 19:15 Clear 35 1.4 29 -1.5 81 81 Calm 29.77 1008 10 16.0934 0 0
7:35 pm 19:35 Clear 34 1.1 29 -1.5 83 83 Calm 29.78 1008 10 16.0934 0 0
7:55 pm 19:55 Clear 35 1.4 30 -1.2 83 83 Calm 29.77 1008 10 16.0934 0 0
8:15 pm 20:15 Clear 32 0.1 29 -1.5 89 89 Calm 29.78 1009 10 16.0934 0 0
8:35 pm 20:35 Clear 32 0 29 -1.8 88 88 N 5 7 29.79 1009 10 16.0934 0 0
8:55 pm 20:55 Clear 32 0 28 -2 87 87 WNW 3 6 29.79 1009 10 16.0934 0 0
9:15 pm 21:15 Clear 30 -1.1 26 -3.1 86 86 W 5 7 29.8 1009 10 16.0934 0 0
9:35 pm 21:35 Clear 31 -0.8 27 -2.6 88 88 WNW 5 7 29.79 1009 10 16.0934 0 0
9:55 pm 21:55 Clear 31 -0.8 27 -2.8 86 86 NNW 6 9 29.78 1009 10 16.0934 0 0
10:15 pm 22:15 Clear 29 -1.4 26 -3.1 88 88 NW 5 7 29.79 1009 10 16.0934 0 0
10:35 pm 22:35 Clear 31 -0.7 27 -2.7 87 87 NNW 9 15 29.79 1009 10 16.0934 0 0
10:55 pm 22:55 Clear 31 -0.7 27 -2.9 85 85 WNW 5 7 29.78 1009 10 16.0934 0 0
11:15 pm 23:15 Clear 28 -2.1 26 -3.5 90 90 WSW 7 11 29.8 1009 10 16.0934 0 0
11:35 pm 23:35 Clear 31 -0.7 27 -2.9 85 85 WNW 8 13 29.78 1009 10 16.0934 0 0
11:55 pm 23:55 Clear 30 -1.1 26 -3.5 84 84 W 6 9 29.79 1009 10 16.0934 0 0

Powered by AerisWeather